Theta_e
322 322 321 320 318 317 317 317 317 317 317 317 317 316 316 316 316 316 316 317 317 317 316 317 318 319 314 307 305 319 348 341 336 316 310 308 309 313 308 314 327 325 328 327 333 332 330
322 321 321 320 318 317 317 317 317 317 317 316 316 316 316 316 316 316 316 316 316 316 316 317 318 319 309 296 313 329 330 324 314 309 308 310 317 320 316 316 317 324 327 328 331 332 331
321 321 320 319 318 317 317 317 317 317 317 316 316 316 316 316 316 316 316 316 316 315 316 317 318 316 310 302 318 324 317 310 309 306 308 311 317 319 316 309 315 316 319 326 328 332 330
320 321 321 319 318 318 317 317 318 317 316 316 317 316 317 316 317 316 315 315 314 316 316 317 318 312 300 316 315 312 316 310 310 305 308 319 321 320 314 311 309 306 318 313 326 330 331
320 321 321 319 319 318 318 318 318 317 316 317 316 317 316 315 315 315 314 315 316 318 318 320 309 304 302 321 312 313 316 312 308 305 309 320 318 311 306 301 297 300 297 312 321 331 329
321 321 320 319 318 318 318 318 318 317 317 316 317 316 315 315 314 314 314 315 315 316 320 319 314 304 307 308 308 312 315 314 308 307 308 307 307 299 299 296 291 295 299 306 315 325 325
321 321 320 318 318 318 318 318 318 316 316 317 316 316 315 315 315 313 309 308 307 307 308 300 302 308 312 311 312 310 316 311 307 305 300 306 297 294 298 299 301 300 300 315 321 326 321
321 321 319 319 318 318 318 318 318 317 316 316 315 315 314 314 314 312 306 304 310 306 299 310 308 311 314 308 305 309 316 307 305 301 303 299 295 301 304 303 302 300 300 314 319 324 321
320 321 319 318 318 318 318 318 317 317 317 316 315 314 314 313 313 305 304 308 315 311 298 302 307 306 306 307 305 306 311 306 303 300 301 296 301 306 304 301 300 298 297 312 313 319 321
321 319 319 318 317 317 318 317 317 317 317 316 315 315 314 312 306 306 306 310 311 310 290 296 299 307 307 308 305 315 311 306 303 300 301 300 305 305 302 301 300 292 302 314 316 312 308
321 319 319 318 317 317 317 317 317 317 316 315 315 315 313 311 302 301 307 308 313 301 283 303 302 311 304 305 307 308 314 307 300 302 300 298 301 301 300 302 303 299 305 311 315 309 310
321 320 319 319 317 317 316 316 316 316 316 316 315 314 312 307 304 307 310 311 304 290 286 301 303 299 299 303 304 309 308 308 308 303 302 301 306 302 301 305 305 306 311 311 309 305 298
321 320 319 319 317 316 316 316 316 316 315 315 313 311 309 312 304 309 310 304 292 290 303 300 299 301 298 298 302 305 303 299 296 291 291 300 301 304 305 299 301 302 296 290 294 298 296
321 320 319 319 316 315 316 316 316 315 314 313 310 309 307 312 309 310 307 299 289 299 298 303 303 300 295 299 298 302 300 297 300 297 293 292 292 300 305 301 297 297 297 291 289 291 294
320 320 320 319 316 315 316 316 315 314 314 312 308 304 305 310 312 309 300 290 290 297 302 301 299 294 294 301 299 300 299 298 300 299 293 292 294 305 305 305 302 296 294 299 294 293 296
320 320 320 319 316 315 316 316 315 314 313 311 304 305 306 313 314 307 298 293 296 303 305 301 294 297 294 298 297 296 297 301 301 304 300 297 292 299 305 304 303 300 302 298 294 289 288
320 319 319 318 315 315 316 316 315 314 312 310 307 303 310 315 311 303 293 293 300 306 306 298 296 294 295 297 299 298 298 300 303 301 302 296 295 296 300 297 297 300 298 297 296 293 291
318 318 318 318 315 315 316 316 314 312 310 309 304 299 314 309 299 297 295 299 303 299 302 299 299 296 297 298 297 299 298 298 303 300 299 299 294 290 295 301 303 302 299 296 293 291 299
317 319 319 318 315 316 316 315 314 312 310 305 301 303 307 307 293 293 297 299 298 299 298 299 297 297 299 296 295 300 301 304 303 301 295 298 292 290 293 295 299 295 297 294 295 297 294
317 319 319 318 315 316 316 315 313 312 311 305 303 294 298 298 294 294 293 294 294 301 301 300 296 298 294 296 296 298 300 303 304 300 316 306 291 292 290 290 295 293 297 296 293 291 295
317 319 319 317 315 316 316 315 314 313 311 307 305 295 296 292 294 294 295 296 296 296 299 300 298 299 295 291 297 296 299 301 303 309 302 299 291 292 294 298 297 296 297 298 294 298 295
317 318 319 316 315 316 316 316 315 313 311 309 302 302 304 297 296 296 294 291 296 297 297 295 298 300 299 296 296 294 295 296 297 302 298 297 292 294 293 298 297 295 298 302 305 309 307
316 318 318 316 315 316 316 316 316 313 310 309 310 309 306 301 293 292 292 295 299 301 300 302 301 298 296 298 300 297 300 298 297 296 296 295 293 293 290 295 294 290 295 299 307 309 310
316 318 318 315 315 315 316 316 317 315 312 306 310 308 304 297 295 296 300 300 299 299 297 299 299 297 300 302 301 298 295 294 297 295 294 292 292 291 290 290 284 293 299 304 309 310 312
316 318 317 314 314 315 316 317 317 316 314 305 309 309 306 299 298 299 299 299 298 298 296 298 299 299 298 298 292 289 289 291 295 295 293 294 290 288 286 286 292 298 299 300 303 303 313
315 318 318 314 314 315 315 317 317 316 314 306 307 312 309 303 296 304 300 301 295 294 295 298 300 300 298 294 293 286 286 292 293 295 295 293 292 290 287 285 286 295 301 305 304 297 310
315 317 318 314 313 314 314 316 317 317 315 309 305 312 309 304 303 301 299 296 298 296 294 296 297 297 297 291 290 285 287 297 287 290 291 289 290 287 286 285 291 299 302 305 292 293 308
315 316 317 314 313 314 314 315 316 316 316 311 307 311 308 302 306 307 307 303 301 298 295 298 298 298 294 291 291 287 287 290 289 293 291 290 287 288 289 286 284 304 302 295 298 299 304
313 316 317 313 313 313 313 314 314 315 316 314 309 315 316 306 307 311 308 309 306 304 299 299 297 296 295 292 293 292 289 290 289 283 294 288 293 291 293 292 298 302 300 301 300 299 301
Wind_Speed
13 14 15 15 15 16 15 15 15 15 15 15 15 15 15 15 14 14 15 14 13 13 13 12 12 10 3 1 12 3 6 20 10 9 8 7 7 6 6 6 8 5 10 9 3 4 10
14 14 15 15 16 16 15 15 16 15 15 16 16 15 15 15 15 15 15 15 14 13 13 11 9 7 2 3 8 9 10 13 8 8 7 7 8 8 7 8 7 8 11 10 15 9 13
14 14 15 15 16 15 15 14 14 14 15 16 16 16 16 16 16 16 16 15 14 13 12 9 4 4 3 14 0 5 8 7 5 8 7 14 8 2 4 7 6 11 9 9 13 10 9
16 14 16 15 14 14 14 15 15 15 15 16 15 17 15 15 14 15 15 15 14 11 9 6 3 3 10 6 9 7 5 4 7 7 6 1 6 6 6 7 7 2 1 7 9 13 13
16 15 15 15 15 14 15 15 15 16 16 15 16 15 15 15 15 14 13 14 14 9 6 4 3 2 12 10 6 10 10 7 7 5 6 7 1 7 2 2 6 4 4 7 9 20 11
15 15 16 16 16 15 15 15 16 17 15 16 14 15 15 14 14 14 14 17 6 5 2 7 6 3 7 4 4 7 9 8 5 3 2 3 3 0 4 5 4 4 1 2 7 10 7
15 15 17 17 17 15 16 16 16 18 17 15 14 14 15 12 10 9 8 3 4 2 3 10 9 7 8 2 3 4 6 6 4 4 5 4 5 5 8 6 7 3 5 4 6 9 7
16 16 17 17 16 16 16 17 17 16 18 17 15 16 15 13 8 6 1 2 8 3 9 17 15 12 12 2 4 7 8 7 5 7 2 6 5 9 6 7 6 5 3 5 8 7 9
18 16 16 16 16 17 17 17 17 17 16 16 15 14 14 14 8 2 4 9 7 9 4 9 7 7 7 9 7 11 11 6 5 5 5 6 7 9 6 7 8 8 6 9 6 9 4
16 17 17 17 17 17 17 18 18 17 17 15 16 15 13 14 3 2 6 9 4 6 5 8 3 7 5 8 5 8 8 6 3 10 6 7 7 5 7 8 8 7 9 13 18 8 6
14 19 17 17 17 17 18 18 18 17 16 18 17 12 8 3 4 2 9 8 9 5 5 7 2 4 2 7 8 4 7 3 6 6 7 10 6 7 7 13 8 11 6 10 17 5 8
17 17 18 17 18 18 18 19 19 20 18 16 14 12 11 3 3 10 9 11 4 7 2 8 2 5 2 1 0 5 6 3 2 2 5 9 6 7 10 9 10 7 4 8 7 4 2
17 18 18 17 17 18 19 19 21 22 23 20 14 11 6 4 6 2 5 5 7 4 9 7 4 5 7 4 2 6 6 5 5 3 4 5 7 10 6 6 4 5 7 2 2 1 8
17 16 19 17 17 18 19 20 21 22 22 24 20 15 7 6 3 5 5 6 7 3 5 4 6 17 7 7 6 9 6 4 5 5 3 3 7 5 3 8 7 3 9 7 6 6 2
16 17 17 17 17 18 19 20 20 23 24 22 22 2 3 7 8 3 6 7 3 3 5 6 16 6 6 4 3 7 10 8 6 7 6 3 5 6 3 5 10 3 2 7 3 1 4
16 16 17 17 17 18 18 18 19 23 25 22 3 3 5 3 8 6 8 2 4 5 3 2 6 7 7 8 5 6 5 6 6 3 5 5 3 3 5 1 3 7 4 3 4 1 3
15 17 15 16 16 17 17 17 18 22 27 15 2 4 6 7 7 7 5 5 5 9 6 1 4 6 1 4 4 5 8 4 8 8 6 4 3 8 4 1 6 4 3 6 5 5 4
16 15 14 16 16 17 17 18 17 17 25 5 2 2 6 2 6 2 3 6 7 6 9 4 3 5 4 4 6 6 4 2 8 4 4 1 4 1 7 5 4 5 5 5 6 3 3
15 15 15 15 16 17 18 18 16 12 9 2 2 3 4 5 2 1 4 4 3 6 5 6 4 4 0 2 5 6 4 4 8 6 2 5 4 3 9 9 9 5 4 6 5 3 4
15 15 14 16 17 18 18 18 18 15 4 3 2 4 6 5 1 6 5 3 1 5 5 3 3 3 3 6 4 4 8 5 3 3 3 3 4 4 3 6 3 5 9 1 7 4 4
15 15 13 16 17 18 19 19 21 23 18 6 2 2 4 2 5 4 7 3 9 6 8 10 8 5 4 4 5 7 6 7 5 9 5 4 3 4 4 7 2 5 10 7 3 5 6
14 15 13 15 16 18 19 19 20 25 15 4 3 4 6 3 3 9 6 4 6 5 5 5 8 11 10 6 3 3 3 6 1 8 6 6 3 6 7 6 7 5 15 7 7 9 13
14 13 12 13 15 16 17 18 18 21 16 4 4 3 5 6 2 6 2 5 6 2 6 7 5 5 8 5 2 2 3 3 5 3 5 4 3 4 3 7 5 7 7 6 3 3 18
13 12 10 12 14 16 17 17 17 16 11 1 4 2 4 4 2 4 7 4 4 4 4 3 6 4 5 6 5 1 3 4 5 5 2 4 3 3 3 5 3 6 6 5 11 6 18
12 12 10 11 13 15 16 18 17 16 16 2 3 3 3 2 2 5 7 4 1 1 2 2 1 3 3 5 4 5 7 6 6 3 6 6 4 3 3 3 4 8 9 3 8 5 16
13 12 8 10 12 13 14 14 16 17 18 2 3 1 4 3 4 3 3 3 2 2 3 2 3 1 6 4 4 3 1 2 4 8 7 6 6 6 3 3 3 2 3 10 7 2 3
12 12 7 8 11 13 15 15 16 15 15 3 4 1 4 3 5 4 2 3 2 3 3 2 2 5 5 3 4 3 2 1 2 3 5 5 4 4 0 2 1 4 5 3 4 9 7
11 11 8 8 10 11 13 14 15 16 15 6 5 3 4 2 6 5 4 4 5 4 4 5 6 6 5 5 4 2 3 2 4 3 0 2 1 0 0 3 2 5 4 6 5 4 8
12 11 8 8 9 10 11 11 11 13 15 9 2 4 1 4 6 1 0 6 4 2 5 4 6 2 4 5 2 3 2 2 4 2 4 2 5 5 4 5 6 5 6 4 4 8 5
Wind_Direction
354 353 351 351 351 348 346 343 340 337 333 329 326 324 321 318 316 314 311 310 311 311 312 313 314 317 350 342 252 265 46 161 149 153 189 185 185 190 189 196 151 222 172 216 81 306 129
355 350 348 349 349 348 346 343 340 336 332 330 326 323 321 316 313 311 307 307 308 308 307 309 311 303 183 257 244 156 128 148 161 159 190 186 208 207 281 220 207 207 186 176 189 166 150
358 351 348 349 351 348 346 340 333 331 327 326 325 321 317 313 312 309 306 304 304 303 302 296 298 256 271 239 290 118 140 178 175 171 168 216 224 257 355 302 236 249 145 158 190 161 133
359 346 346 348 350 345 338 336 334 330 329 326 321 324 319 315 312 309 305 301 300 297 291 269 246 253 247 242 248 257 221 213 200 216 228 132 208 270 198 269 350 140 291 150 154 175 166
356 346 346 346 346 340 336 334 331 333 333 327 326 323 321 320 317 312 304 294 291 290 258 194 140 178 266 301 173 222 171 192 187 240 255 255 182 214 324 40 10 12 197 122 162 190 164
352 346 347 346 345 338 335 334 335 338 334 333 326 328 326 324 321 315 307 291 262 316 157 158 253 349 272 259 225 162 191 169 175 173 331 212 171 9 44 75 213 234 25 125 157 149 37
350 345 346 343 341 340 337 335 336 342 339 334 331 329 326 324 315 321 344 5 26 18 255 195 194 238 279 269 307 242 176 142 148 110 179 205 99 201 232 192 230 296 356 61 90 100 130
349 343 342 339 339 338 335 334 332 334 341 340 334 331 327 326 312 340 325 231 224 143 294 228 233 237 267 336 246 243 121 147 150 198 186 23 193 217 228 251 263 267 134 103 74 98 59
350 340 337 339 339 336 335 333 332 332 334 339 334 330 327 321 318 271 199 230 244 48 309 292 192 208 229 149 219 221 142 176 152 184 178 166 232 205 204 259 272 259 167 182 152 109 27
348 342 337 337 337 336 332 330 329 330 331 330 331 327 327 318 331 290 249 253 265 148 35 284 191 268 203 178 191 191 176 140 141 193 196 222 250 208 216 245 205 257 211 168 146 132 170
340 344 339 336 336 335 333 330 327 326 326 330 331 319 315 304 280 242 244 345 320 76 24 338 224 254 92 142 155 216 186 114 177 201 115 240 218 200 203 227 200 238 202 182 165 124 117
343 342 340 336 335 335 332 330 329 326 324 316 314 308 319 158 234 245 331 311 32 49 302 314 111 304 80 151 175 167 159 105 103 256 281 245 250 174 214 238 221 231 86 65 56 58 76
335 341 340 335 336 335 334 334 330 329 325 320 313 293 288 296 241 41 350 15 47 52 339 339 356 336 277 234 257 151 167 170 162 129 287 299 249 248 207 251 349 105 74 78 86 256 229
330 332 338 337 336 336 337 336 331 327 324 319 315 306 228 226 256 21 39 55 67 317 265 277 282 308 202 185 227 166 164 193 219 117 336 213 316 186 217 174 178 140 141 154 183 172 182
327 332 335 337 336 339 339 337 334 326 326 325 313 96 238 253 189 141 74 55 200 231 259 316 321 9 355 346 191 140 180 195 209 152 193 16 271 324 190 194 128 254 95 195 97 88 94
325 333 334 335 335 338 340 337 335 328 327 336 345 1 267 176 141 67 70 244 246 225 262 282 29 20 25 341 31 121 141 345 3 30 173 233 247 276 289 102 32 133 170 67 19 245 127
328 336 334 330 331 334 337 338 338 335 327 338 16 26 270 144 73 54 107 229 277 258 216 11 37 37 354 357 55 21 17 15 13 324 54 42 98 296 29 137 169 35 56 58 111 118 159
334 329 328 330 330 334 337 341 343 339 331 33 8 359 223 3 55 85 139 201 239 359 15 351 78 76 10 8 33 50 43 51 348 339 31 32 133 274 234 276 224 141 139 112 116 273 93
330 324 329 328 331 335 340 341 337 338 4 327 338 277 290 73 83 273 259 256 73 32 12 17 24 58 331 327 72 23 340 49 42 45 40 319 10 26 352 358 359 35 31 128 114 88 194
331 328 330 331 336 339 340 339 334 330 298 152 95 14 327 49 210 98 92 345 33 32 6 36 344 66 86 9 39 47 346 2 44 84 244 75 60 111 153 217 214 353 354 67 112 111 158
334 331 332 335 341 342 342 344 339 334 337 153 58 269 199 316 333 46 80 51 48 16 0 8 16 335 134 80 18 11 348 345 4 357 10 91 86 27 345 359 41 43 359 334 131 177 131
335 330 339 341 342 344 345 348 347 343 1 44 72 40 356 312 360 71 36 1 71 18 50 6 52 26 51 66 104 182 7 37 298 326 22 355 356 47 7 360 37 48 16 26 106 113 77
335 332 342 339 343 344 346 351 354 357 353 57 313 331 101 299 31 83 357 47 37 60 31 83 64 69 28 354 274 249 205 218 232 346 15 43 68 53 333 339 3 27 342 12 42 60 135
333 333 343 337 344 347 348 352 356 4 16 210 254 93 67 306 84 122 93 88 51 30 108 37 67 92 270 326 318 306 342 25 62 34 74 96 49 74 156 6 56 245 287 94 71 58 103
331 328 339 338 346 348 350 352 357 358 358 262 295 75 91 310 245 78 112 139 230 31 106 80 33 194 304 6 46 25 353 13 338 20 43 77 102 54 108 135 290 32 334 307 118 33 129
328 325 336 337 345 350 346 352 358 359 357 321 280 145 102 107 306 353 101 49 179 219 47 307 309 296 69 78 59 87 104 287 341 342 25 54 72 109 81 104 179 140 351 351 77 66 172
323 322 327 328 340 349 349 352 356 1 360 339 286 33 97 86 275 65 102 145 65 59 125 290 255 346 57 53 68 88 321 247 45 44 332 353 9 112 74 204 340 336 337 71 149 225 157
319 319 316 330 341 350 347 349 358 353 359 17 277 302 98 103 283 31 44 75 34 65 113 268 37 349 30 58 94 261 101 253 54 314 197 129 70 4 130 142 187 323 357 152 236 343 126
318 317 317 321 332 342 341 342 359 356 351 360 330 312 57 121 236 277 186 135 115 152 136 21 168 180 179 87 50 110 40 59 150 279 343 348 171 174 142 206 241 321 98 59 94 89 61